Skip Page Navigation
NASA JPL Caltech
NASA Logo - Jet Propulsion Laboratory + View the NASA Portal
+ Near-Earth Object (NEO) Program
Search JPL
JPL Home Earth Solar System Stars & Galaxies Technology
JPL Solar System Dynamics
BODIES ORBITS EPHEMERIDES TOOLS PHYSICAL DATA DISCOVERY FAQ SITE MAP
JPL Small-Body Database Browser
Search: [ help ]  
170903 (2004 WS2)
Classification: Apollo [NEO, PHA]          SPK-ID: 2170903
Ephemeris | Orbit Diagram | Orbital Elements | Physical Parameters | Discovery Circumstances | Close-Approach Data ]

[ hide orbit diagram ]
Orbit Diagram
Note: Make sure you have Java enabled on your browser to see the applet. This applet is provided as a 3D orbit visualization tool. The applet was implemented using 2-body methods, and hence should not be used for determining accurate long-term trajectories (over several years or decades) or planetary encounter circumstances. For accurate long-term ephemerides, please instead use our Horizons system.
Orbit Viewer

Additional Notes: the orbits shown in the applet are color coded. The planets are white lines, and the asteroid/comet is a blue line. The bright white line indicates the portion of the orbit that is above the ecliptic plane, and the darker portion is below the ecliptic plane. Likewise for the asteroid/comet orbit, the light blue indicates the portion above the ecliptic plane, and the dark blue the portion below the ecliptic plane.

Orbit Viewer applet originally written and kindly provided by Osamu Ajiki (AstroArts), and further modified by Ron Baalke (JPL).


Orbital Elements at Epoch 2456400.5 (2013-Apr-18.0) TDB
Reference: JPL 63 (heliocentric ecliptic J2000)
 Element Value Uncertainty (1-sigma)   Units 
e .6031349797483914 1.1164e-07  
a 1.336435856827796 1.8493e-08 AU
q .5303846433849391 1.46e-07 AU
i 8.262783717489663 1.0808e-05 deg
node 87.78457521226429 2.9695e-05 deg
peri 115.3125340956731 3.2297e-05 deg
M 108.5710721230572 3.9124e-05 deg
tp 2456230.310708022647
(2012-Oct-29.81070802)
5.7873e-05 JED
period 564.313715557715
1.55
1.1713e-05
3.207e-08
d
yr
n .6379430272117516 1.3241e-08 deg/d
Q 2.142487070270652 2.9646e-08 AU
  Orbit Determination Parameters
   # obs. used (total)      294  
   data-arc span      3249 days (8.90 yr)  
   first obs. used      2002-10-28  
   last obs. used      2011-09-20  
   planetary ephem.      DE405  
   SB-pert. ephem.      SB405-CPV-2  
   condition code      0  
   fit RMS      .60574  
   data source      ORB  
   producer      Otto Matic  
   solution date      2013-Apr-29 15:40:10  

Additional Information
 Earth MOID = .0296582 AU 
 T_jup = 4.694 
[ show covariance matrix ]

Ephemeris | Orbit Diagram | Orbital Elements | Physical Parameters | Discovery Circumstances | Close-Approach Data ]

Physical Parameter Table
Parameter Symbol Value Units Sigma Reference Notes
absolute magnitude H 17.966 mag .46093 63 autocmod 2.5c

170903 (2004 WS2)          Discovered 2004-Nov-18 by LINEAR at Socorro (704)
Reference: 20071124/Numbers.arcLast Updated: 2007-11-26

[ show close-approach data ]
Ephemeris | Orbit Diagram | Orbital Elements | Physical Parameters | Discovery Circumstances | Close-Approach Data ]
ABOUT SSD CREDITS/AWARDS PRIVACY/COPYRIGHT GLOSSARY LINKS
FirstGov 2013-May-26 06:00 UT
(server date/time)  
NASA Home Page
Site Manager:   Donald K. Yeomans
Webmaster  Alan B. Chamberlin